DAL8520 KSLC-KLAX

Flight info

Callsign DAL8520
Flight time 1h 31m
Altitude 34000
Route ARCHZ1 WINEN LAKRR Q73 HAKMN ANJLL4
Aircraft A321/M-SDE3FGHIRWY/LB1

Departure

Time 2026-04-25 16:49
Airport Salt Lake City International Airport (KSLC)

Arrival

Time 2026-04-25 18:21
Airport Los Angeles International Airport (KLAX)
Time Latitude Longitude Altitude Speed Heading
2026-04-25 16:20 40.78990 -111.98253 4231 ft 0 kts 175°
2026-04-25 16:37 40.79009 -111.98254 4231 ft 4 kts 184°
2026-04-25 16:37 40.79035 -111.98247 4231 ft 4 kts 207°
2026-04-25 16:37 40.79055 -111.98226 4231 ft 4 kts 245°
2026-04-25 16:38 40.79059 -111.98210 4231 ft 0 kts 265°
2026-04-25 16:41 40.79058 -111.98225 4231 ft 5 kts 265°
2026-04-25 16:41 40.79051 -111.98336 4231 ft 10 kts 265°
2026-04-25 16:42 40.79046 -111.98422 4231 ft 8 kts 265°
2026-04-25 16:42 40.79041 -111.98490 4231 ft 6 kts 265°
2026-04-25 16:42 40.79038 -111.98540 4231 ft 5 kts 266°
2026-04-25 16:42 40.79041 -111.98572 4231 ft 2 kts 279°
2026-04-25 16:43 40.79047 -111.98593 4231 ft 5 kts 301°
2026-04-25 16:43 40.79142 -111.98622 4231 ft 18 kts 354°
2026-04-25 16:43 40.79219 -111.98698 4231 ft 14 kts 273°
2026-04-25 16:43 40.79209 -111.98851 4231 ft 20 kts 263°
2026-04-25 16:44 40.79196 -111.99039 4231 ft 20 kts 264°
2026-04-25 16:44 40.79185 -111.99212 4231 ft 18 kts 264°
2026-04-25 16:44 40.79174 -111.99367 4231 ft 16 kts 265°
2026-04-25 16:44 40.79157 -111.99501 4231 ft 14 kts 238°
2026-04-25 16:45 40.79081 -111.99514 4231 ft 10 kts 175°
2026-04-25 16:45 40.79014 -111.99507 4231 ft 10 kts 175°
2026-04-25 16:45 40.78916 -111.99495 4232 ft 15 kts 175°
2026-04-25 16:45 40.78820 -111.99485 4232 ft 14 kts 175°
2026-04-25 16:46 40.78707 -111.99471 4231 ft 16 kts 174°
2026-04-25 16:46 40.78600 -111.99458 4231 ft 15 kts 174°
2026-04-25 16:46 40.78499 -111.99447 4231 ft 17 kts 175°
2026-04-25 16:46 40.78388 -111.99434 4231 ft 30 kts 175°
2026-04-25 16:47 40.78110 -111.99410 4231 ft 29 kts 185°
2026-04-25 16:47 40.77921 -111.99434 4264 ft 26 kts 175°
2026-04-25 16:47 40.77746 -111.99414 4264 ft 24 kts 175°
2026-04-25 16:47 40.77588 -111.99395 4264 ft 22 kts 174°
2026-04-25 16:48 40.77523 -111.99500 4265 ft 15 kts 277°
2026-04-25 16:48 40.77595 -111.99557 4266 ft 12 kts 355°
2026-04-25 16:48 40.77763 -111.99578 4265 ft 53 kts 354°
2026-04-25 16:48 40.78380 -111.99655 4229 ft 122 kts 355°
2026-04-25 16:49 40.79410 -111.99782 4234 ft 173 kts 354°
2026-04-25 16:49 40.80707 -111.99879 4648 ft 188 kts 357°
2026-04-25 16:49 40.81974 -112.00004 5610 ft 182 kts 341°
2026-04-25 16:49 40.82936 -112.01061 6153 ft 188 kts 294°
2026-04-25 16:50 40.83034 -112.02797 6318 ft 203 kts 250°
2026-04-25 16:50 40.82362 -112.04520 6468 ft 219 kts 241°
2026-04-25 16:50 40.81572 -112.06335 6586 ft 239 kts 241°
2026-04-25 16:50 40.80705 -112.08332 6740 ft 262 kts 242°
2026-04-25 16:51 40.79771 -112.10489 7097 ft 276 kts 241°
2026-04-25 16:51 40.78836 -112.12706 7786 ft 277 kts 245°
2026-04-25 16:51 40.78110 -112.15049 8526 ft 276 kts 251°
2026-04-25 16:51 40.77903 -112.15860 8751 ft 276 kts 252°
2026-04-25 16:52 40.76995 -112.19917 9892 ft 279 kts 254°
2026-04-25 16:52 40.76395 -112.22378 10274 ft 291 kts 245°
2026-04-25 16:52 40.75258 -112.24679 10407 ft 311 kts 229°
2026-04-25 16:52 40.73565 -112.26596 10541 ft 332 kts 214°
2026-04-25 16:53 40.69001 -112.28596 11292 ft 355 kts 191°
2026-04-25 16:53 40.66551 -112.29086 11887 ft 357 kts 191°
2026-04-25 16:53 40.64088 -112.29594 12501 ft 359 kts 192°
2026-04-25 16:54 40.61610 -112.30113 13115 ft 362 kts 192°
2026-04-25 16:54 40.59115 -112.30634 13721 ft 364 kts 193°
2026-04-25 16:54 40.56614 -112.31185 14257 ft 365 kts 196°
2026-04-25 16:54 40.54178 -112.32107 14784 ft 364 kts 201°
2026-04-25 16:55 40.51752 -112.33101 15328 ft 366 kts 201°
2026-04-25 16:55 40.49318 -112.34096 15856 ft 368 kts 201°
2026-04-25 16:55 40.46863 -112.35097 16366 ft 370 kts 201°
2026-04-25 16:55 40.44405 -112.36100 16891 ft 372 kts 201°
2026-04-25 16:56 40.41927 -112.37110 17396 ft 373 kts 201°
2026-04-25 16:56 40.39440 -112.38127 17886 ft 375 kts 202°
2026-04-25 16:56 40.36944 -112.39150 18327 ft 377 kts 201°
2026-04-25 16:56 40.34430 -112.40179 18725 ft 380 kts 201°
2026-04-25 16:57 40.31900 -112.41213 19120 ft 382 kts 202°
2026-04-25 16:57 40.31043 -112.41562 19246 ft 383 kts 202°
2026-04-25 16:57 40.26800 -112.43287 19881 ft 386 kts 202°
2026-04-25 16:57 40.24222 -112.44330 20271 ft 388 kts 202°
2026-04-25 16:58 40.21633 -112.45381 20656 ft 390 kts 202°
2026-04-25 16:58 40.19038 -112.46456 21022 ft 391 kts 205°
2026-04-25 16:58 40.16574 -112.47934 21388 ft 389 kts 213°
2026-04-25 16:58 40.14194 -112.49623 21771 ft 391 kts 212°
2026-04-25 16:59 40.11792 -112.51318 22157 ft 393 kts 212°
2026-04-25 16:59 40.09385 -112.53013 22544 ft 395 kts 212°
2026-04-25 16:59 40.06963 -112.54719 22922 ft 396 kts 212°
2026-04-25 16:59 40.04529 -112.56431 23299 ft 398 kts 212°
2026-04-25 17:00 40.02083 -112.58146 23632 ft 400 kts 212°
2026-04-25 17:00 39.99626 -112.59867 23965 ft 402 kts 213°
2026-04-25 17:00 39.97157 -112.61595 24297 ft 403 kts 213°
2026-04-25 17:00 39.94685 -112.63322 24603 ft 404 kts 213°
2026-04-25 17:01 39.92201 -112.65058 24896 ft 406 kts 213°
2026-04-25 17:01 39.89711 -112.66797 25190 ft 406 kts 213°
2026-04-25 17:01 39.87182 -112.68567 25510 ft 408 kts 213°
2026-04-25 17:01 39.84681 -112.70316 25814 ft 409 kts 214°
2026-04-25 17:02 39.82169 -112.72067 26112 ft 410 kts 214°
2026-04-25 17:02 39.79647 -112.73822 26400 ft 412 kts 214°
2026-04-25 17:02 39.77119 -112.75583 26685 ft 413 kts 214°
2026-04-25 17:02 39.76297 -112.76154 26770 ft 413 kts 214°
2026-04-25 17:03 39.72041 -112.79114 27206 ft 415 kts 214°
2026-04-25 17:03 39.69489 -112.80889 27482 ft 416 kts 214°
2026-04-25 17:03 39.66810 -112.82406 27713 ft 426 kts 205°
2026-04-25 17:03 39.63965 -112.83548 27983 ft 428 kts 204°
2026-04-25 17:04 39.61110 -112.84679 28257 ft 430 kts 205°
2026-04-25 17:04 39.58250 -112.85814 28517 ft 431 kts 205°
2026-04-25 17:04 39.55386 -112.86949 28855 ft 430 kts 205°
2026-04-25 17:04 39.52532 -112.88081 29217 ft 428 kts 205°
2026-04-25 17:05 39.49688 -112.89215 29563 ft 427 kts 205°
2026-04-25 17:05 39.44030 -112.91477 30160 ft 424 kts 205°
2026-04-25 17:05 39.41210 -112.92599 30438 ft 424 kts 205°
2026-04-25 17:06 39.38396 -112.93713 30709 ft 423 kts 205°
2026-04-25 17:06 39.36531 -112.94449 30873 ft 422 kts 205°
2026-04-25 17:06 39.33722 -112.95558 31143 ft 422 kts 205°
2026-04-25 17:06 39.30878 -112.96680 31436 ft 421 kts 205°
2026-04-25 17:07 39.28079 -112.97786 31706 ft 420 kts 205°
2026-04-25 17:07 39.25285 -112.98890 31981 ft 420 kts 205°
2026-04-25 17:07 39.22494 -112.99991 32258 ft 419 kts 205°
2026-04-25 17:07 39.19711 -113.01089 32514 ft 418 kts 205°
2026-04-25 17:08 39.16934 -113.02183 32815 ft 416 kts 205°
2026-04-25 17:08 39.14173 -113.03271 33108 ft 415 kts 205°
2026-04-25 17:08 39.11413 -113.04357 33394 ft 414 kts 205°
2026-04-25 17:08 39.08662 -113.05439 33673 ft 413 kts 205°
2026-04-25 17:09 39.05918 -113.06520 33828 ft 412 kts 205°
2026-04-25 17:09 39.03185 -113.07593 33855 ft 409 kts 205°
2026-04-25 17:09 38.97748 -113.09721 33833 ft 407 kts 205°
2026-04-25 17:10 38.92345 -113.11832 33857 ft 405 kts 205°
2026-04-25 17:10 38.86953 -113.13942 33855 ft 405 kts 205°
2026-04-25 17:11 38.81560 -113.16049 33856 ft 405 kts 205°
2026-04-25 17:11 38.76172 -113.18142 33858 ft 404 kts 205°
2026-04-25 17:12 38.70795 -113.20229 33823 ft 404 kts 204°
2026-04-25 17:12 38.65425 -113.22322 33853 ft 403 kts 204°
2026-04-25 17:13 38.60933 -113.24067 33860 ft 403 kts 204°
2026-04-25 17:13 38.54699 -113.26470 33873 ft 403 kts 204°
2026-04-25 17:14 38.49343 -113.28543 33858 ft 402 kts 204°
2026-04-25 17:14 38.43948 -113.30628 33866 ft 403 kts 204°
2026-04-25 17:15 38.38591 -113.32692 33864 ft 402 kts 204°
2026-04-25 17:15 38.33236 -113.34755 33853 ft 402 kts 204°
2026-04-25 17:16 38.27881 -113.36814 33842 ft 402 kts 204°
2026-04-25 17:16 38.22526 -113.38860 33825 ft 402 kts 204°
2026-04-25 17:17 38.17176 -113.40901 33824 ft 402 kts 204°
2026-04-25 17:17 38.11821 -113.42944 33821 ft 402 kts 205°
2026-04-25 17:18 38.06471 -113.44989 33821 ft 402 kts 203°
2026-04-25 17:18 38.01116 -113.47037 33798 ft 402 kts 203°
2026-04-25 17:19 37.95755 -113.49085 33800 ft 403 kts 203°
2026-04-25 17:19 37.90469 -113.51146 33830 ft 394 kts 205°
2026-04-25 17:20 37.85241 -113.53441 33827 ft 400 kts 206°
2026-04-25 17:20 37.79986 -113.55810 33814 ft 402 kts 205°
2026-04-25 17:21 37.74702 -113.58134 33824 ft 402 kts 205°
2026-04-25 17:21 37.69399 -113.60418 33822 ft 402 kts 205°
2026-04-25 17:22 37.64959 -113.62336 33824 ft 402 kts 205°
2026-04-25 17:22 37.58805 -113.64998 33824 ft 402 kts 205°
2026-04-25 17:23 37.53471 -113.67292 33794 ft 402 kts 205°
2026-04-25 17:23 37.48169 -113.69573 33803 ft 402 kts 205°
2026-04-25 17:24 37.42877 -113.71857 33800 ft 402 kts 205°
2026-04-25 17:24 37.37579 -113.74141 33790 ft 402 kts 205°
2026-04-25 17:25 37.32284 -113.76417 33763 ft 402 kts 204°
2026-04-25 17:25 37.26992 -113.78687 33764 ft 402 kts 204°
2026-04-25 17:26 37.21701 -113.80956 33787 ft 402 kts 204°
2026-04-25 17:26 37.16416 -113.83208 33785 ft 401 kts 204°
2026-04-25 17:27 37.11123 -113.85459 33792 ft 402 kts 204°
2026-04-25 17:27 37.07586 -113.86968 33774 ft 402 kts 204°
2026-04-25 17:28 37.00542 -113.89969 33770 ft 402 kts 204°
2026-04-25 17:28 36.95245 -113.92218 33762 ft 402 kts 204°
2026-04-25 17:29 36.89952 -113.94466 33761 ft 402 kts 204°
2026-04-25 17:29 36.84659 -113.96711 33759 ft 402 kts 204°
2026-04-25 17:30 36.79324 -113.98964 33737 ft 402 kts 205°
2026-04-25 17:30 36.74025 -114.01211 33733 ft 403 kts 205°
2026-04-25 17:31 36.68711 -114.03449 33723 ft 403 kts 204°
2026-04-25 17:31 36.63394 -114.05682 33726 ft 404 kts 204°
2026-04-25 17:32 36.58067 -114.07924 33709 ft 404 kts 205°
2026-04-25 17:32 36.52737 -114.10164 33711 ft 405 kts 204°
2026-04-25 17:33 36.47400 -114.12391 33716 ft 405 kts 205°
2026-04-25 17:33 36.42062 -114.14625 33705 ft 405 kts 205°
2026-04-25 17:34 36.36737 -114.16859 33713 ft 405 kts 204°
2026-04-25 17:34 36.31392 -114.19094 33699 ft 405 kts 205°
2026-04-25 17:35 36.26045 -114.21317 33704 ft 405 kts 205°
2026-04-25 17:35 36.20708 -114.23531 33708 ft 404 kts 205°
2026-04-25 17:36 36.15375 -114.25747 33707 ft 404 kts 205°
2026-04-25 17:36 36.10137 -114.28176 33702 ft 397 kts 214°
2026-04-25 17:37 36.05884 -114.32292 33699 ft 385 kts 231°
2026-04-25 17:37 36.02344 -114.37237 33710 ft 383 kts 231°
2026-04-25 17:38 35.99970 -114.40518 33705 ft 383 kts 231°
2026-04-25 17:38 35.95205 -114.47079 33716 ft 384 kts 231°
2026-04-25 17:39 35.92242 -114.51164 33727 ft 384 kts 231°
2026-04-25 17:39 35.88684 -114.56076 33737 ft 384 kts 231°
2026-04-25 17:40 35.85121 -114.60992 33694 ft 385 kts 231°
2026-04-25 17:40 35.81547 -114.65903 33753 ft 385 kts 231°
2026-04-25 17:41 35.77965 -114.70808 33755 ft 385 kts 231°
2026-04-25 17:41 35.74387 -114.75709 33755 ft 385 kts 231°
2026-04-25 17:42 35.70789 -114.80641 33794 ft 385 kts 231°
2026-04-25 17:42 35.67207 -114.85543 33796 ft 385 kts 230°
2026-04-25 17:43 35.63622 -114.90442 33799 ft 385 kts 231°
2026-04-25 17:43 35.60048 -114.95336 33799 ft 385 kts 231°
2026-04-25 17:44 35.56473 -115.00225 33796 ft 385 kts 230°
2026-04-25 17:44 35.52891 -115.05101 33835 ft 385 kts 230°
2026-04-25 17:45 35.49904 -115.09155 33825 ft 385 kts 230°
2026-04-25 17:45 35.45629 -115.14763 33837 ft 385 kts 229°
2026-04-25 17:46 35.41943 -115.19533 33833 ft 384 kts 229°
2026-04-25 17:46 35.38284 -115.24290 33840 ft 383 kts 229°
2026-04-25 17:47 35.34638 -115.29046 33855 ft 383 kts 229°
2026-04-25 17:47 35.30995 -115.33792 33856 ft 382 kts 229°
2026-04-25 17:48 35.25517 -115.40906 33856 ft 384 kts 229°
2026-04-25 17:49 35.21852 -115.45655 33852 ft 384 kts 229°
2026-04-25 17:49 35.18150 -115.50443 33855 ft 385 kts 229°
2026-04-25 17:50 35.14472 -115.55191 33865 ft 385 kts 229°
2026-04-25 17:50 35.10793 -115.59942 33849 ft 385 kts 229°
2026-04-25 17:51 35.07107 -115.64666 33871 ft 385 kts 229°
2026-04-25 17:51 35.03399 -115.69395 33862 ft 385 kts 229°
2026-04-25 17:52 34.99688 -115.74124 33863 ft 386 kts 229°
2026-04-25 17:52 34.95970 -115.78858 33855 ft 387 kts 229°
2026-04-25 17:53 34.92246 -115.83595 33854 ft 387 kts 229°
2026-04-25 17:53 34.88517 -115.88328 33855 ft 387 kts 229°
2026-04-25 17:54 34.84792 -115.93057 33851 ft 387 kts 229°
2026-04-25 17:54 34.81059 -115.97789 33854 ft 387 kts 229°
2026-04-25 17:55 34.77324 -116.02511 33844 ft 387 kts 229°
2026-04-25 17:55 34.73612 -116.07234 33850 ft 386 kts 229°
2026-04-25 17:56 34.69906 -116.11966 33850 ft 386 kts 229°
2026-04-25 17:56 34.66179 -116.16719 33849 ft 386 kts 229°
2026-04-25 17:57 34.62476 -116.21427 33847 ft 386 kts 229°
2026-04-25 17:57 34.58760 -116.26126 33841 ft 386 kts 229°
2026-04-25 17:58 34.55049 -116.30831 33835 ft 386 kts 229°
2026-04-25 17:58 34.51335 -116.35539 33841 ft 387 kts 229°
2026-04-25 17:59 34.47604 -116.40248 33782 ft 387 kts 229°
2026-04-25 17:59 34.45731 -116.42608 33018 ft 391 kts 229°
2026-04-25 17:59 34.43844 -116.44983 32312 ft 391 kts 228°
2026-04-25 17:59 34.42052 -116.47452 31641 ft 389 kts 235°
2026-04-25 18:00 34.40647 -116.50229 31085 ft 387 kts 244°
2026-04-25 18:00 34.39461 -116.53147 30518 ft 385 kts 243°
2026-04-25 18:00 34.38269 -116.56043 29964 ft 383 kts 243°
2026-04-25 18:00 34.37099 -116.58866 29344 ft 381 kts 244°
2026-04-25 18:01 34.35917 -116.61723 28782 ft 378 kts 244°
2026-04-25 18:01 34.34746 -116.64555 28217 ft 375 kts 244°
2026-04-25 18:01 34.33584 -116.67367 27648 ft 372 kts 244°
2026-04-25 18:01 34.32437 -116.70167 27100 ft 370 kts 244°
2026-04-25 18:02 34.31320 -116.72943 26581 ft 367 kts 244°
2026-04-25 18:02 34.30214 -116.75709 26092 ft 363 kts 244°
2026-04-25 18:02 34.29119 -116.78448 25548 ft 361 kts 244°
2026-04-25 18:02 34.28022 -116.81182 24695 ft 362 kts 244°
2026-04-25 18:03 34.26913 -116.83918 23765 ft 361 kts 244°
2026-04-25 18:03 34.25823 -116.86624 23346 ft 356 kts 244°
2026-04-25 18:03 34.24746 -116.89303 22879 ft 352 kts 244°
2026-04-25 18:03 34.23668 -116.91975 22450 ft 346 kts 244°
2026-04-25 18:04 34.22620 -116.94565 22017 ft 341 kts 244°
2026-04-25 18:04 34.21584 -116.97120 21630 ft 335 kts 244°
2026-04-25 18:04 34.20724 -116.99708 21245 ft 331 kts 251°
2026-04-25 18:04 34.20017 -117.02344 20861 ft 327 kts 251°
2026-04-25 18:05 34.19321 -117.04931 20487 ft 322 kts 251°
2026-04-25 18:05 34.18634 -117.07482 20099 ft 319 kts 251°
2026-04-25 18:05 34.17950 -117.10015 19724 ft 316 kts 251°
2026-04-25 18:05 34.17269 -117.12536 19342 ft 315 kts 251°
2026-04-25 18:06 34.16592 -117.15029 18950 ft 312 kts 251°
2026-04-25 18:06 34.15915 -117.17510 18568 ft 311 kts 251°
2026-04-25 18:06 34.15237 -117.19981 18248 ft 310 kts 251°
2026-04-25 18:06 34.14558 -117.22440 17809 ft 308 kts 251°
2026-04-25 18:07 34.13883 -117.24886 17425 ft 305 kts 251°
2026-04-25 18:07 34.13215 -117.27307 17027 ft 302 kts 251°
2026-04-25 18:07 34.12552 -117.29706 16644 ft 301 kts 251°
2026-04-25 18:07 34.11892 -117.32092 16260 ft 299 kts 251°
2026-04-25 18:08 34.11236 -117.34464 15881 ft 297 kts 251°
2026-04-25 18:08 34.10583 -117.36827 15507 ft 295 kts 251°
2026-04-25 18:08 34.09957 -117.39176 15122 ft 293 kts 252°
2026-04-25 18:08 34.09368 -117.41515 14760 ft 291 kts 252°
2026-04-25 18:09 34.08793 -117.43841 14399 ft 289 kts 252°
2026-04-25 18:09 34.08225 -117.46156 14171 ft 289 kts 252°
2026-04-25 18:09 34.07641 -117.48519 14085 ft 295 kts 252°
2026-04-25 18:09 34.07442 -117.49319 14036 ft 295 kts 251°
2026-04-25 18:10 34.06138 -117.53177 13319 ft 298 kts 247°
2026-04-25 18:10 34.05458 -117.55516 13049 ft 294 kts 252°
2026-04-25 18:10 34.04911 -117.57887 12793 ft 293 kts 254°
2026-04-25 18:10 34.04405 -117.60261 12535 ft 293 kts 254°
2026-04-25 18:11 34.03892 -117.62637 12276 ft 292 kts 253°
2026-04-25 18:11 34.03361 -117.64994 12022 ft 292 kts 253°
2026-04-25 18:11 34.02996 -117.66555 11864 ft 292 kts 253°
2026-04-25 18:11 34.02438 -117.68905 11638 ft 291 kts 254°
2026-04-25 18:12 34.02058 -117.71302 11391 ft 291 kts 262°
2026-04-25 18:12 34.01830 -117.73719 11136 ft 291 kts 262°
2026-04-25 18:12 34.01596 -117.76154 10892 ft 291 kts 262°
2026-04-25 18:12 34.01363 -117.78573 10649 ft 290 kts 262°
2026-04-25 18:13 34.01130 -117.80973 10413 ft 290 kts 262°
2026-04-25 18:13 34.00888 -117.83437 10168 ft 290 kts 262°
2026-04-25 18:13 34.00654 -117.85839 9938 ft 286 kts 262°
2026-04-25 18:14 34.00202 -117.90424 9669 ft 268 kts 262°
2026-04-25 18:14 33.99982 -117.92650 9540 ft 267 kts 262°
2026-04-25 18:14 33.99760 -117.94866 9409 ft 266 kts 262°
2026-04-25 18:14 33.99533 -117.97077 9281 ft 266 kts 262°
2026-04-25 18:15 33.99315 -117.99272 9152 ft 266 kts 262°
2026-04-25 18:15 33.99098 -118.01480 9021 ft 266 kts 262°
2026-04-25 18:15 33.98878 -118.03699 8748 ft 268 kts 262°
2026-04-25 18:15 33.98643 -118.05980 7840 ft 280 kts 262°
2026-04-25 18:16 33.98390 -118.08348 6740 ft 290 kts 262°
2026-04-25 18:16 33.98117 -118.10809 5578 ft 302 kts 262°
2026-04-25 18:16 33.97620 -118.15807 4406 ft 290 kts 262°
2026-04-25 18:17 33.97418 -118.18154 3954 ft 280 kts 261°
2026-04-25 18:17 33.97206 -118.20486 3411 ft 276 kts 261°
2026-04-25 18:17 33.96985 -118.22702 3016 ft 262 kts 261°
2026-04-25 18:17 33.96764 -118.24883 2698 ft 253 kts 261°
2026-04-25 18:18 33.96564 -118.26876 2367 ft 226 kts 259°
2026-04-25 18:18 33.96386 -118.28641 2067 ft 204 kts 259°
2026-04-25 18:18 33.96225 -118.30241 1775 ft 178 kts 260°
2026-04-25 18:18 33.96083 -118.31639 1558 ft 158 kts 257°
2026-04-25 18:19 33.95953 -118.32918 1350 ft 151 kts 258°
2026-04-25 18:19 33.95828 -118.34138 1162 ft 145 kts 259°
2026-04-25 18:19 33.95704 -118.35350 971 ft 146 kts 258°
2026-04-25 18:19 33.95582 -118.36542 773 ft 142 kts 262°
2026-04-25 18:20 33.95462 -118.37718 586 ft 141 kts 258°
2026-04-25 18:20 33.95343 -118.38884 387 ft 140 kts 258°
2026-04-25 18:20 33.95223 -118.40058 203 ft 142 kts 260°
2026-04-25 18:20 33.95097 -118.41206 92 ft 124 kts 262°
2026-04-25 18:21 33.95036 -118.41875 96 ft 37 kts 263°
2026-04-25 18:21 33.94989 -118.42113 95 ft 31 kts 243°
2026-04-25 18:21 33.94843 -118.42274 96 ft 27 kts 198°
2026-04-25 18:21 33.94683 -118.42230 94 ft 22 kts 111°
2026-04-25 18:22 33.94700 -118.42066 95 ft 25 kts 83°
2026-04-25 18:22 33.94718 -118.41888 94 ft 37 kts 83°
2026-04-25 18:22 33.94743 -118.41630 93 ft 11 kts 83°
2026-04-25 18:22 33.94752 -118.41550 94 ft 9 kts 82°
2026-04-25 18:23 33.94760 -118.41481 96 ft 7 kts 82°
2026-04-25 18:23 33.94770 -118.41418 94 ft 11 kts 74°
2026-04-25 18:23 33.94789 -118.41325 95 ft 11 kts 79°
2026-04-25 18:23 33.94798 -118.41233 94 ft 14 kts 85°
2026-04-25 18:24 33.94815 -118.41070 95 ft 22 kts 83°
2026-04-25 18:24 33.94826 -118.40954 97 ft 13 kts 84°
2026-04-25 18:24 33.94779 -118.40889 95 ft 12 kts 186°
2026-04-25 18:24 33.94699 -118.40910 94 ft 14 kts 175°
2026-04-25 18:25 33.94630 -118.40899 94 ft 8 kts 172°
2026-04-25 18:25 33.94580 -118.40882 94 ft 7 kts 168°
2026-04-25 18:25 33.94556 -118.40847 94 ft 5 kts 96°
2026-04-25 18:25 33.94555 -118.40831 95 ft 0 kts 94°
2026-04-25 18:26 33.94555 -118.40828 95 ft 0 kts 92°
2026-04-25 18:26 33.94555 -118.40825 95 ft 0 kts 92°
2026-04-25 18:26 33.94555 -118.40824 95 ft 0 kts 92°